Wind_Speed
15 17 16 19 16 27 21 18 22 21 25 26 29 33 31 27 20 18 14 12 10 9 7 3 4 13 15 20 11 13 15 18 22 23 20 20 19 20 20 19 16 17 16 17 17 16 16 18 20
14 10 6 9 18 15 18 21 18 19 23 23 25 31 33 28 26 21 16 13 11 8 6 5 2 16 17 17 17 18 17 19 25 26 20 18 18 19 19 19 17 17 17 17 16 17 16 17 19
10 8 2 1 13 10 14 18 18 17 19 23 27 28 30 30 25 23 21 15 10 8 6 6 4 12 18 22 20 18 19 18 23 26 24 20 20 17 19 19 17 17 17 17 17 17 17 16 17
12 9 9 11 13 5 9 14 13 16 18 21 23 26 27 29 27 24 22 16 9 6 5 5 6 3 14 22 21 21 18 19 19 25 25 24 20 16 16 17 17 17 17 18 17 17 17 16 16
19 19 19 8 13 12 11 7 9 15 19 24 24 24 25 27 26 24 23 17 9 6 7 5 7 10 10 21 21 22 23 19 18 25 24 23 18 15 15 16 16 16 17 17 17 17 17 16 16
21 19 16 12 9 4 4 8 11 13 17 20 22 19 22 26 26 25 25 20 9 9 9 5 7 9 7 28 23 26 24 24 23 27 25 25 18 16 15 16 16 16 18 17 16 16 17 16 15
19 20 16 11 6 7 6 8 10 12 8 14 17 18 19 23 26 27 28 24 10 13 10 7 4 6 8 23 29 30 31 29 26 26 23 28 19 18 16 16 16 16 18 17 17 16 16 15 15
17 17 15 12 6 7 7 7 6 8 7 10 12 14 16 20 23 26 28 27 17 16 12 10 6 5 7 13 15 25 27 24 23 23 22 21 19 19 15 15 16 17 18 17 16 16 16 15 14
13 14 13 11 8 4 3 8 7 7 3 7 9 11 14 17 21 24 27 28 21 16 15 10 8 8 7 10 11 13 19 22 22 19 18 19 21 15 14 14 15 17 17 18 16 14 14 15 14
9 11 12 10 9 8 5 4 7 10 8 6 6 8 11 13 15 21 25 26 24 18 15 14 11 8 9 10 11 12 10 15 21 15 19 19 17 16 15 15 15 16 17 17 16 15 14 14 14
8 8 8 9 10 9 8 8 9 12 10 9 5 6 6 8 10 15 19 22 23 20 17 14 12 10 8 10 12 12 13 13 15 12 15 21 23 20 17 16 16 16 17 17 18 17 16 15 13
8 9 8 8 8 9 8 9 10 12 14 16 9 5 3 5 6 11 14 16 19 21 17 16 13 11 8 8 11 12 13 15 16 14 11 11 16 19 15 16 16 16 15 15 16 16 15 14 14
9 11 9 9 8 9 9 9 9 10 10 13 12 4 8 5 3 7 11 12 13 15 16 17 15 10 10 8 8 11 13 12 14 16 15 14 10 12 12 11 14 14 13 13 13 14 15 15 15
10 12 12 10 8 8 9 11 8 8 7 9 9 4 2 6 4 7 7 9 10 10 11 12 14 14 9 8 7 5 6 13 15 16 16 17 19 17 15 14 14 14 13 14 14 14 14 15 16
11 12 11 10 6 4 9 9 9 10 9 7 7 7 3 1 7 11 8 4 7 8 7 8 12 13 15 9 7 7 4 5 13 16 17 18 20 20 19 19 18 17 16 15 15 15 16 16 16
13 11 12 7 7 7 7 15 10 9 8 8 5 5 7 8 11 12 12 8 10 8 8 8 9 11 11 13 10 5 4 1 6 10 14 20 22 22 23 21 19 19 18 19 18 18 19 18 19
10 9 9 7 6 7 8 12 13 11 6 5 9 9 10 12 15 16 13 11 12 10 7 7 7 7 8 7 9 8 5 4 5 6 5 23 24 26 25 24 21 21 20 20 22 21 20 21 21
13 10 9 9 9 6 9 9 9 10 11 8 11 10 10 18 16 16 17 16 16 13 13 9 10 8 5 3 3 4 6 4 3 5 5 4 10 27 26 26 23 21 20 20 22 23 23 23 22
13 9 8 10 11 14 11 12 11 11 11 11 11 12 13 12 15 17 20 23 24 16 20 16 14 14 12 10 7 3 0 3 4 1 3 5 3 13 23 22 21 21 22 22 22 23 23 24 23
10 8 9 10 11 11 12 12 13 12 11 11 15 14 14 15 15 17 22 27 24 22 20 16 22 20 18 16 17 14 11 3 3 3 1 1 4 3 12 15 16 19 21 21 22 23 24 24 26
11 11 12 11 12 13 13 12 12 13 13 12 13 12 13 12 13 18 23 25 25 22 22 28 26 27 24 32 22 20 17 11 10 9 5 3 3 5 9 13 15 14 15 17 18 20 22 23 24
15 14 14 13 11 7 11 7 18 14 15 16 15 15 17 17 17 14 20 24 30 31 31 31 29 32 31 31 24 24 23 18 21 15 9 7 5 5 6 10 13 14 14 14 16 18 20 20 23
16 16 16 14 13 12 15 12 14 14 16 17 18 18 17 18 19 20 21 22 27 31 33 35 35 32 36 38 36 31 21 24 27 20 17 14 12 9 8 7 8 11 13 14 13 13 15 18 21
17 17 18 18 16 15 17 16 9 15 18 18 19 19 19 20 21 24 25 27 31 34 35 37 41 41 42 40 38 32 35 28 29 24 30 19 19 16 13 11 8 7 8 8 9 10 12 13 16
18 18 12 14 11 13 23 21 14 20 20 20 19 19 20 22 25 27 30 33 37 37 39 40 42 43 47 46 45 42 39 36 32 33 31 25 24 22 20 17 14 11 9 8 9 11 13 15 17
22 23 23 22 17 16 30 25 24 22 21 20 16 19 20 23 27 30 32 35 36 38 42 43 43 47 52 52 51 49 46 45 40 40 35 30 30 28 26 22 19 16 14 13 11 11 14 16 18
29 25 27 29 31 30 22 26 25 22 23 19 20 21 23 25 28 31 33 35 39 41 42 39 39 46 50 47 48 55 55 53 49 43 41 37 34 33 29 27 23 21 18 16 14 11 13 16 17
26 30 28 28 27 24 16 32 18 25 25 24 25 26 28 29 31 32 32 35 38 41 38 40 44 41 47 43 49 49 53 63 56 50 47 38 35 36 35 31 30 25 21 18 16 13 13 14 19
30 29 26 27 30 31 29 19 32 27 28 28 27 30 32 33 34 36 36 36 38 42 45 39 40 42 43 34 39 46 52 60 62 61 50 43 41 38 38 37 35 32 26 22 20 18 16 12 13
28 28 28 29 28 32 33 30 30 29 30 28 26 29 30 34 35 37 38 39 39 42 47 42 39 39 38 37 36 34 46 62 66 56 55 50 49 48 40 41 42 37 32 28 24 24 22 16 14
Wind_Direction
75 105 76 74 74 70 57 63 65 66 67 70 71 63 58 59 65 73 72 67 61 52 32 43 173 193 186 196 191 193 198 166 157 154 155 150 154 149 147 147 149 142 140 138 135 131 131 126 127
82 128 33 79 76 76 62 58 59 70 73 69 69 71 59 53 58 64 73 65 60 55 38 24 142 186 182 175 184 186 191 157 163 167 154 152 154 152 151 149 150 147 145 141 141 136 134 133 136
60 81 331 28 106 93 77 70 76 64 71 73 69 67 68 59 56 52 58 66 57 65 48 23 51 185 192 189 181 192 185 167 173 169 161 164 159 159 156 154 154 150 150 145 146 145 143 144 141
44 43 46 122 131 129 101 92 87 79 67 67 74 69 64 63 55 47 45 54 66 79 80 54 45 108 199 188 192 174 184 173 174 172 168 162 151 159 158 159 160 156 154 150 153 152 150 147 149
65 66 58 119 132 124 121 87 88 71 56 58 56 63 68 60 57 49 39 40 70 96 102 80 65 66 177 178 173 164 167 176 182 178 173 153 148 154 159 166 162 164 159 156 156 154 155 153 157
57 54 65 88 127 122 89 48 69 75 76 64 60 63 63 62 52 45 40 33 86 128 116 112 106 82 104 173 166 158 146 150 152 165 153 156 146 152 161 164 166 169 164 161 157 157 159 159 157
57 62 70 86 54 68 61 23 42 49 76 61 59 53 57 65 57 48 41 40 85 131 122 123 116 129 98 141 149 146 142 150 156 155 154 156 157 161 162 163 164 169 170 168 164 160 160 162 158
51 55 63 76 76 57 30 4 9 16 65 36 49 54 48 65 62 57 48 49 59 119 117 120 135 114 111 113 144 148 144 152 154 155 162 167 161 159 158 165 166 169 173 170 169 167 163 162 164
51 46 43 49 91 77 11 356 339 328 4 24 58 72 43 50 69 62 56 50 56 88 100 104 119 143 134 132 133 153 158 158 154 154 161 169 170 154 156 170 168 167 172 174 175 174 173 170 176
38 25 21 24 36 49 28 358 328 327 338 354 53 84 52 58 73 72 65 57 55 74 90 98 102 126 152 147 153 158 158 167 161 163 162 170 173 172 168 172 170 171 172 174 177 181 184 181 186
11 9 359 0 1 8 12 357 346 335 335 337 30 60 102 88 81 80 71 66 61 60 80 90 98 109 136 162 160 168 180 174 176 186 182 183 178 175 172 177 175 180 178 175 181 185 188 188 195
3 354 345 343 340 340 347 341 356 329 339 344 356 49 129 128 90 87 82 77 73 66 60 76 89 99 116 147 170 175 180 195 196 199 205 219 178 172 183 174 183 184 183 180 186 187 190 185 192
347 346 344 328 319 318 330 321 325 317 330 336 353 38 142 112 160 121 100 92 85 81 71 65 69 90 106 128 155 182 188 197 204 208 215 219 213 187 189 184 189 186 190 188 191 196 196 192 195
337 334 332 328 312 306 311 305 311 317 315 330 6 9 183 127 196 180 146 130 110 95 82 75 68 63 91 110 123 147 195 209 213 216 219 218 213 214 215 213 205 197 193 197 193 199 200 203 203
325 328 326 324 320 293 284 298 310 321 319 331 5 358 305 144 201 195 184 183 157 130 104 93 86 79 70 78 120 140 172 214 225 224 222 226 222 216 214 213 216 210 204 202 200 202 209 211 211
321 325 327 324 307 309 302 304 341 326 332 352 354 325 265 259 242 231 234 236 215 182 143 118 106 93 79 64 63 117 158 160 194 226 237 232 231 228 225 223 222 220 216 211 210 211 212 213 219
322 317 311 308 304 303 307 305 325 326 338 335 326 305 273 260 259 245 263 266 212 216 188 157 128 107 94 76 66 61 111 153 202 210 259 232 224 227 228 226 225 223 219 218 220 218 220 221 223
312 309 307 304 303 308 314 311 314 313 310 305 300 286 265 249 246 241 253 270 253 234 209 207 186 174 152 139 107 86 71 85 164 200 262 262 221 228 228 226 224 226 228 227 225 223 224 228 229
299 292 290 296 309 318 326 325 326 320 306 295 274 275 261 268 230 235 246 253 262 274 225 206 216 196 187 197 206 198 185 35 30 221 256 238 281 218 218 223 224 227 232 232 229 227 229 232 234
295 278 279 292 303 304 309 311 308 300 283 259 261 267 264 248 244 230 235 251 254 264 261 264 219 223 211 209 213 207 197 194 294 306 280 238 230 179 191 211 222 226 231 233 234 233 234 237 237
295 291 286 287 302 304 312 312 308 304 295 287 296 299 292 274 241 236 238 244 253 250 259 250 238 221 223 238 209 217 204 200 219 227 235 212 222 215 210 210 214 221 227 229 232 237 236 233 235
294 298 292 290 294 276 308 273 307 302 300 300 298 295 288 282 282 260 235 242 251 252 249 246 254 248 232 242 247 231 217 215 249 217 213 229 213 206 210 223 220 219 226 235 240 240 241 240 237
295 298 291 288 291 291 298 291 279 291 290 288 288 282 279 280 279 275 269 252 249 250 248 239 251 249 241 239 239 242 225 222 231 222 225 218 230 226 213 213 228 233 237 243 245 247 257 257 255
301 294 288 289 294 289 275 292 294 272 291 289 283 280 279 273 262 261 261 258 250 248 245 243 239 239 237 244 241 247 243 237 235 238 238 218 226 234 233 229 229 250 259 269 277 276 279 274 268
290 286 296 288 284 288 287 302 296 297 292 289 285 275 275 271 269 264 261 254 247 247 251 246 238 238 237 240 240 247 248 240 239 239 250 235 236 228 229 237 234 239 257 271 286 297 300 300 295
281 286 290 290 289 281 296 307 297 298 293 289 279 274 265 256 256 260 264 268 266 262 256 250 244 241 240 239 241 242 247 240 237 240 246 246 242 239 229 230 233 232 247 260 273 295 310 318 308
284 281 289 290 295 298 300 293 304 296 294 288 282 281 275 272 269 268 269 267 268 267 265 262 249 244 247 239 241 243 239 241 234 239 242 247 250 247 246 236 239 242 242 252 262 283 302 318 321
277 286 291 295 299 295 293 300 300 307 299 293 290 290 285 279 276 275 271 267 265 268 265 259 253 248 245 244 239 242 241 237 234 232 239 241 249 251 251 246 251 250 250 256 264 279 298 314 322
287 285 286 290 291 291 294 292 293 301 294 294 291 289 287 284 279 276 273 268 265 267 269 262 253 255 244 239 237 246 244 235 233 235 224 236 248 252 251 253 252 257 260 260 269 276 279 285 305
283 285 294 294 291 295 299 302 293 294 295 290 284 283 283 281 278 276 275 273 268 268 269 268 259 255 245 243 244 256 249 232 233 228 228 230 239 247 251 251 253 256 261 261 266 275 285 288 294
Height
5904 5905 5906 5905 5907 5901 5903 5901 5897 5895 5893 5889 5886 5882 5880 5879 5877 5877 5874 5873 5874 5874 5874 5873 5872 5874 5877 5878 5880 5883 5887 5888 5892 5896 5900 5902 5906 5908 5910 5913 5916 5916 5918 5920 5922 5924 5925 5925 5925
5906 5905 5905 5906 5906 5908 5906 5902 5899 5897 5894 5892 5889 5884 5882 5881 5879 5877 5874 5874 5874 5875 5875 5875 5874 5874 5877 5879 5881 5884 5887 5889 5893 5897 5900 5904 5906 5909 5912 5914 5917 5918 5919 5921 5923 5925 5927 5927 5928
5905 5905 5905 5904 5907 5908 5907 5904 5902 5899 5896 5892 5890 5888 5885 5883 5882 5879 5877 5875 5873 5874 5875 5875 5874 5875 5876 5879 5882 5884 5887 5890 5893 5896 5900 5904 5907 5910 5913 5915 5917 5919 5920 5922 5924 5926 5928 5929 5930
5905 5905 5904 5904 5907 5907 5907 5905 5903 5902 5899 5896 5892 5890 5889 5885 5883 5881 5879 5877 5875 5874 5876 5876 5875 5874 5875 5878 5882 5884 5887 5891 5894 5896 5900 5903 5907 5911 5913 5915 5917 5919 5921 5923 5925 5927 5929 5931 5933
5906 5905 5906 5907 5908 5907 5907 5906 5904 5903 5902 5899 5896 5893 5892 5889 5886 5883 5881 5878 5876 5874 5876 5877 5876 5874 5875 5877 5880 5883 5886 5890 5893 5897 5900 5904 5907 5910 5914 5916 5917 5919 5921 5924 5926 5927 5930 5932 5935
5908 5907 5908 5910 5909 5909 5908 5906 5906 5905 5904 5902 5900 5896 5894 5892 5890 5887 5882 5879 5876 5876 5876 5878 5879 5878 5877 5876 5880 5882 5886 5890 5894 5897 5900 5904 5907 5910 5914 5916 5917 5919 5921 5924 5927 5928 5930 5933 5935
5909 5910 5911 5911 5912 5911 5910 5908 5907 5907 5906 5904 5901 5899 5896 5894 5891 5889 5886 5881 5878 5877 5878 5879 5881 5882 5881 5879 5880 5883 5887 5891 5894 5897 5901 5904 5908 5911 5914 5916 5917 5920 5922 5925 5927 5928 5931 5933 5936
5911 5912 5913 5912 5911 5911 5911 5910 5908 5907 5907 5905 5902 5901 5899 5896 5894 5890 5889 5884 5883 5880 5881 5881 5883 5883 5883 5883 5883 5885 5887 5891 5894 5897 5900 5904 5908 5911 5914 5917 5917 5919 5923 5924 5927 5928 5930 5933 5935
5914 5914 5914 5914 5914 5913 5912 5910 5909 5908 5906 5905 5903 5903 5902 5899 5896 5893 5891 5889 5887 5885 5884 5885 5885 5886 5887 5887 5887 5889 5890 5893 5894 5898 5901 5904 5908 5910 5913 5918 5918 5919 5922 5924 5927 5929 5930 5932 5935
5915 5915 5914 5914 5913 5914 5912 5910 5909 5908 5907 5906 5905 5905 5903 5902 5899 5896 5894 5893 5890 5889 5888 5887 5888 5888 5889 5890 5891 5893 5894 5895 5896 5898 5901 5904 5907 5910 5913 5917 5917 5919 5921 5923 5926 5928 5931 5932 5934
5916 5916 5916 5915 5913 5912 5912 5911 5908 5906 5907 5906 5907 5906 5904 5902 5902 5899 5897 5895 5893 5892 5891 5889 5890 5890 5890 5892 5893 5895 5897 5899 5900 5900 5901 5904 5906 5908 5911 5915 5916 5919 5920 5923 5925 5928 5930 5931 5933
5917 5915 5915 5914 5913 5912 5911 5910 5909 5907 5906 5905 5907 5906 5905 5904 5903 5901 5899 5898 5896 5895 5894 5892 5891 5892 5892 5893 5893 5895 5897 5898 5900 5902 5903 5903 5905 5906 5909 5913 5917 5918 5921 5923 5925 5928 5930 5931 5933
5915 5915 5914 5913 5912 5911 5911 5910 5909 5908 5906 5905 5905 5905 5905 5905 5904 5902 5901 5900 5899 5898 5897 5895 5894 5893 5893 5894 5894 5895 5896 5898 5900 5901 5904 5905 5907 5907 5908 5912 5916 5918 5920 5922 5925 5927 5929 5930 5932
5915 5914 5913 5912 5911 5910 5909 5907 5908 5907 5906 5905 5905 5904 5905 5905 5904 5903 5901 5900 5899 5899 5899 5898 5896 5895 5894 5894 5894 5895 5896 5898 5899 5901 5902 5904 5907 5908 5910 5913 5915 5917 5919 5921 5923 5926 5928 5930 5931
5913 5912 5911 5910 5909 5909 5908 5907 5907 5906 5905 5905 5905 5904 5903 5903 5903 5902 5901 5901 5901 5900 5901 5900 5898 5897 5896 5895 5894 5895 5897 5897 5898 5899 5901 5902 5904 5906 5908 5911 5913 5915 5918 5920 5921 5924 5926 5928 5929
5910 5910 5909 5908 5907 5908 5908 5905 5906 5905 5904 5903 5904 5903 5902 5901 5902 5903 5903 5902 5901 5901 5901 5901 5900 5899 5898 5897 5896 5895 5895 5896 5896 5899 5900 5900 5901 5903 5906 5908 5910 5913 5915 5917 5919 5921 5923 5925 5927
5909 5909 5907 5907 5906 5905 5905 5904 5903 5902 5902 5901 5900 5900 5901 5900 5901 5901 5902 5902 5901 5901 5901 5901 5901 5900 5899 5899 5898 5898 5896 5896 5897 5899 5898 5896 5897 5900 5903 5905 5908 5910 5912 5914 5916 5918 5920 5923 5925
5906 5906 5905 5903 5903 5903 5902 5901 5901 5900 5899 5898 5897 5896 5896 5895 5898 5900 5900 5900 5901 5901 5900 5900 5900 5900 5899 5899 5899 5899 5899 5897 5897 5897 5897 5895 5894 5896 5899 5902 5905 5907 5908 5910 5912 5914 5917 5919 5921
5904 5903 5902 5900 5899 5898 5898 5897 5897 5896 5896 5894 5894 5892 5892 5892 5894 5896 5897 5896 5896 5900 5898 5897 5898 5897 5897 5896 5897 5898 5899 5898 5897 5896 5895 5894 5893 5892 5895 5899 5901 5903 5904 5906 5908 5910 5911 5914 5916
5900 5901 5900 5898 5897 5897 5896 5895 5894 5894 5894 5892 5891 5889 5888 5889 5889 5890 5891 5891 5894 5895 5896 5896 5895 5896 5895 5893 5891 5892 5894 5896 5897 5897 5894 5893 5893 5892 5893 5896 5898 5900 5901 5902 5904 5905 5906 5908 5911
5897 5897 5896 5896 5895 5894 5894 5893 5892 5891 5889 5888 5885 5883 5884 5884 5885 5885 5886 5887 5888 5891 5892 5892 5891 5891 5892 5885 5880 5888 5890 5892 5893 5894 5894 5893 5893 5893 5893 5894 5895 5897 5899 5899 5901 5902 5903 5904 5906
5894 5894 5893 5893 5893 5896 5892 5896 5888 5887 5886 5883 5882 5880 5880 5879 5878 5880 5881 5882 5882 5884 5885 5885 5886 5888 5888 5883 5883 5888 5889 5888 5882 5891 5892 5892 5892 5892 5893 5894 5894 5894 5895 5896 5897 5899 5899 5900 5900
5890 5890 5890 5889 5889 5890 5888 5890 5889 5885 5883 5881 5878 5879 5877 5875 5874 5874 5874 5875 5876 5877 5878 5878 5879 5881 5882 5880 5881 5884 5884 5886 5881 5879 5890 5889 5890 5890 5890 5892 5893 5893 5893 5894 5895 5896 5896 5896 5897
5887 5886 5885 5885 5886 5887 5885 5885 5887 5882 5878 5876 5875 5872 5871 5870 5869 5868 5867 5867 5867 5868 5869 5870 5871 5871 5873 5873 5873 5878 5881 5880 5880 5881 5884 5884 5885 5887 5888 5887 5888 5890 5890 5890 5891 5892 5892 5891 5891
5882 5882 5885 5886 5886 5886 5877 5877 5878 5874 5872 5870 5869 5867 5866 5864 5862 5861 5860 5859 5858 5858 5858 5858 5861 5862 5863 5865 5867 5868 5871 5873 5875 5878 5877 5879 5881 5882 5884 5885 5885 5884 5886 5886 5887 5887 5887 5887 5885
5878 5878 5878 5876 5877 5878 5869 5871 5869 5867 5865 5864 5863 5861 5859 5857 5856 5854 5852 5850 5849 5848 5847 5848 5849 5850 5852 5854 5856 5859 5862 5867 5868 5871 5872 5873 5876 5878 5878 5879 5880 5880 5880 5882 5882 5883 5883 5884 5882
5870 5873 5872 5869 5867 5866 5866 5863 5861 5860 5858 5856 5854 5852 5850 5849 5847 5845 5844 5842 5839 5837 5835 5834 5836 5837 5837 5841 5844 5847 5851 5853 5859 5863 5865 5866 5868 5871 5874 5875 5876 5876 5876 5877 5878 5879 5880 5880 5880
5866 5864 5865 5862 5862 5860 5861 5854 5854 5849 5848 5847 5845 5843 5841 5839 5837 5835 5834 5831 5828 5825 5824 5823 5823 5824 5824 5827 5831 5834 5836 5840 5847 5852 5857 5859 5860 5862 5866 5869 5871 5873 5874 5874 5875 5876 5876 5877 5878
5859 5859 5860 5858 5856 5853 5852 5853 5843 5843 5839 5837 5836 5832 5830 5828 5826 5823 5821 5819 5817 5813 5810 5812 5811 5812 5812 5815 5819 5821 5821 5825 5834 5842 5846 5850 5852 5855 5858 5862 5864 5868 5871 5871 5872 5872 5872 5873 5874
5853 5852 5851 5849 5848 5844 5841 5842 5838 5834 5831 5829 5829 5825 5823 5818 5815 5812 5810 5808 5807 5804 5800 5799 5800 5801 5802 5803 5806 5807 5806 5810 5819 5828 5834 5840 5843 5846 5850 5854 5857 5861 5864 5866 5867 5867 5868 5868 5869